TimeMDT,TemperatureF,Dew PointF,Humidity,Sea Level PressureIn,VisibilityMPH,Wind Direction,Wind SpeedMPH,Gust SpeedMPH,PrecipitationIn,Events,Conditions,WindDirDegrees,DateUTC
12:15 AM,53.6,12.2,19,30.16,10.0,North,9.2,-,N/A,,Clear,10,2012-10-06 06:15:00
12:35 AM,53.6,12.2,19,30.16,10.0,NE,9.2,-,N/A,,Clear,50,2012-10-06 06:35:00
12:55 AM,53.6,12.2,19,30.16,10.0,NE,10.4,-,N/A,,Clear,40,2012-10-06 06:55:00
1:35 AM,51.8,10.4,19,30.18,10.0,Calm,Calm,-,N/A,,Clear,0,2012-10-06 07:35:00
2:15 AM,50.0,12.2,22,30.19,10.0,South,3.5,-,N/A,,Clear,170,2012-10-06 08:15:00
2:55 AM,50.0,12.2,22,30.20,10.0,Calm,Calm,-,N/A,,Clear,0,2012-10-06 08:55:00
3:35 AM,46.4,12.2,25,30.20,10.0,NNW,4.6,-,N/A,,Clear,340,2012-10-06 09:35:00
3:55 AM,46.4,12.2,25,30.19,10.0,NNE,4.6,-,N/A,,Clear,30,2012-10-06 09:55:00
4:15 AM,44.6,12.2,27,30.19,10.0,NE,3.5,-,N/A,,Clear,50,2012-10-06 10:15:00
4:35 AM,44.6,14.0,29,30.19,10.0,WNW,3.5,-,N/A,,Clear,300,2012-10-06 10:35:00
5:15 AM,44.6,12.2,27,30.19,10.0,SSE,9.2,-,N/A,,Clear,150,2012-10-06 11:15:00
5:35 AM,42.8,12.2,29,30.19,10.0,ESE,9.2,-,N/A,,Clear,110,2012-10-06 11:35:00
5:55 AM,42.8,15.8,34,30.21,10.0,ENE,10.4,-,N/A,,Clear,60,2012-10-06 11:55:00
6:55 AM,42.8,10.4,27,30.22,10.0,WSW,5.8,-,N/A,,Clear,250,2012-10-06 12:55:00
7:15 AM,41.0,10.4,29,30.22,10.0,WSW,6.9,-,N/A,,Clear,250,2012-10-06 13:15:00
7:35 AM,39.2,10.4,31,30.23,10.0,West,5.8,-,N/A,,Clear,280,2012-10-06 13:35:00
7:55 AM,39.2,12.2,33,30.23,10.0,Calm,Calm,-,N/A,,Clear,0,2012-10-06 13:55:00
8:35 AM,39.2,12.2,33,30.24,10.0,ESE,3.5,-,N/A,,Clear,110,2012-10-06 14:35:00
8:55 AM,42.8,12.2,29,30.24,10.0,ESE,3.5,-,N/A,,Clear,110,2012-10-06 14:55:00
9:15 AM,44.6,12.2,27,30.25,10.0,SSW,3.5,-,N/A,,Clear,210,2012-10-06 15:15:00
9:35 AM,46.4,12.2,25,30.25,10.0,SW,3.5,-,N/A,,Clear,230,2012-10-06 15:35:00
10:15 AM,51.8,15.8,24,30.25,10.0,NNE,10.4,-,N/A,,Clear,20,2012-10-06 16:15:00
10:35 AM,51.8,14.0,22,30.25,10.0,NNE,10.4,-,N/A,,Clear,30,2012-10-06 16:35:00
11:15 AM,51.8,14.0,22,30.24,10.0,NE,6.9,-,N/A,,Clear,40,2012-10-06 17:15:00
11:35 AM,53.6,14.0,21,30.23,10.0,ENE,10.4,-,N/A,,Clear,60,2012-10-06 17:35:00
11:55 AM,53.6,14.0,21,30.23,10.0,ENE,5.8,-,N/A,,Clear,60,2012-10-06 17:55:00
12:15 PM,55.4,14.0,20,30.22,10.0,East,6.9,-,N/A,,Clear,90,2012-10-06 18:15:00
12:55 PM,55.4,15.8,21,30.21,10.0,SE,8.1,-,N/A,,Clear,130,2012-10-06 18:55:00
1:15 PM,55.4,15.8,21,30.21,10.0,ESE,8.1,-,N/A,,Clear,120,2012-10-06 19:15:00
1:35 PM,57.2,15.8,20,30.20,10.0,ESE,6.9,-,N/A,,Clear,120,2012-10-06 19:35:00
2:15 PM,57.2,15.8,20,30.18,10.0,SSE,9.2,-,N/A,,Clear,150,2012-10-06 20:15:00
2:35 PM,57.2,15.8,20,30.17,10.0,SE,8.1,-,N/A,,Clear,130,2012-10-06 20:35:00
2:55 PM,57.2,15.8,20,30.16,10.0,SSE,5.8,-,N/A,,Clear,150,2012-10-06 20:55:00
3:35 PM,57.2,15.8,20,30.15,10.0,SE,6.9,-,N/A,,Clear,140,2012-10-06 21:35:00
3:55 PM,57.2,15.8,20,30.15,10.0,SE,6.9,-,N/A,,Clear,140,2012-10-06 21:55:00
4:15 PM,59.0,14.0,17,30.14,10.0,SSE,4.6,-,N/A,,Clear,150,2012-10-06 22:15:00
4:35 PM,59.0,14.0,17,30.14,10.0,Calm,Calm,-,N/A,,Clear,0,2012-10-06 22:35:00
5:15 PM,59.0,14.0,17,30.13,10.0,ESE,8.1,-,N/A,,Clear,120,2012-10-06 23:15:00
5:35 PM,59.0,12.2,16,30.12,10.0,ESE,5.8,-,N/A,,Clear,120,2012-10-06 23:35:00
6:15 PM,57.2,12.2,17,30.12,10.0,East,4.6,-,N/A,,Clear,90,2012-10-07 00:15:00
6:35 PM,57.2,12.2,17,30.13,10.0,ESE,5.8,-,N/A,,Clear,120,2012-10-07 00:35:00
6:55 PM,57.2,12.2,17,30.13,10.0,East,5.8,-,N/A,,Clear,80,2012-10-07 00:55:00
7:15 PM,55.4,12.2,18,30.13,10.0,East,3.5,-,N/A,,Clear,90,2012-10-07 01:15:00
7:35 PM,53.6,12.2,19,30.13,10.0,ENE,3.5,-,N/A,,Clear,70,2012-10-07 01:35:00
7:55 PM,53.6,12.2,19,30.13,10.0,NNE,3.5,-,N/A,,Clear,30,2012-10-07 01:55:00
8:15 PM,51.8,15.8,24,30.14,10.0,NNE,4.6,-,N/A,,Clear,20,2012-10-07 02:15:00
8:55 PM,48.2,17.6,30,30.14,10.0,West,6.9,-,N/A,,Clear,270,2012-10-07 02:55:00
9:15 PM,48.2,12.2,24,30.15,10.0,WNW,5.8,-,N/A,,Clear,300,2012-10-07 03:15:00
9:35 PM,50.0,12.2,22,30.15,10.0,WNW,5.8,-,N/A,,Clear,300,2012-10-07 03:35:00
9:55 PM,46.4,14.0,27,30.16,10.0,ENE,3.5,-,N/A,,Clear,60,2012-10-07 03:55:00
10:15 PM,46.4,17.6,32,30.16,10.0,Calm,Calm,-,N/A,,Clear,0,2012-10-07 04:15:00
10:35 PM,48.2,14.0,25,30.16,10.0,Calm,Calm,-,N/A,,Clear,0,2012-10-07 04:35:00
10:55 PM,46.4,15.8,29,30.17,10.0,West,3.5,-,N/A,,Clear,280,2012-10-07 04:55:00
11:35 PM,44.6,14.0,29,30.17,10.0,WNW,3.5,-,N/A,,Clear,300,2012-10-07 05:35:00